Preview of NWS' New Version of Forecast
This preview is not operational and should not be used for support decisions.

Regional Weather Roundup (RWR)

Issued by National Weather Service (NWS)

                            
000
ASUS45 KBOU 181710
RWRCO 

WEATHER ROUNDUP FOR COLORADO
NATIONAL WEATHER SERVICE DENVER/BOULDER CO
1100 AM MDT TUE JUN 18 2019

NOTE: "FAIR" INDICATES FEW OR NO CLOUDS BELOW 12000 FEET WITH NO
SIGNIFICANT WEATHER AND/OR OBSTRUCTIONS TO VISIBILITY.

COZ001>005-013-030-031-181800-
...NORTHWEST COLORADO...
  
CITY           SKY/WX    TMP DP  RH WIND       PRES   REMARKS
CRAIG          CLOUDY    63  52  67 N5        30.17F                  
HAYDEN         CLOUDY    57  51  80 VRB3      30.21F                  
MEEKER         CLOUDY    59  50  72 SW3       30.19S                  
RANGELY        PTSUNNY   66  50  57 SW5       30.14F                  
RABBIT EARS PA NOT AVBL                                               
STEAMBOAT SPGS CLOUDY    52  51  95 E5        30.21F                  
WALDEN         CLOUDY    50  45  81 SW5       30.25S                  
$$

COZ006>008-011-181800-
...WEST CENTRAL VALLEYS...
  
CITY           SKY/WX    TMP DP  RH WIND       PRES   REMARKS
GRAND JUNCTION LGT RAIN  62  51  67 S3        30.16R                  
MONTROSE       CLOUDY    61  45  55 CALM      30.19S                  
EAGLE          LGT RAIN  56  48  74 CALM      30.23S                  
RIFLE          LGT RAIN  58  50  75 CALM      30.18S                  
DELTA          PTSUNNY   64  48  56 CALM      30.16F                  
NUCLA          FAIR      66  45  45 CALM      30.21F                  
$$

COZ017>023-064>068-181800-
...SOUTHWEST COLORADO...
  
CITY           SKY/WX    TMP DP  RH WIND       PRES   REMARKS
DURANGO        FAIR      69  41  36 VRB6      30.20F                  
CORTEZ         FAIR      73  45  36 CALM      30.17S                  
PAGOSA SPRINGS FAIR      66  39  37 SW12G20   30.26F                  
TELLURIDE      FAIR      59  41  51 W8        30.34S                  
WOLF CREEK PAS PTSUNNY   46  34  61 S10G17    30.53R                  
$$

COZ009-010-012-014-032>034-037-058>063-181800-
...CENTRAL COLORADO...
  
CITY           SKY/WX    TMP DP  RH WIND       PRES   REMARKS
ASPEN          CLOUDY    56  45  66 N6        30.24R                  
BUENA VISTA    CLOUDY    64  35  34 SW16G22   30.20F                  
COPPER MTN     RAIN      37  36  93 W5        30.44S VSB<1/4          
BERTHOUD PASS  CLOUDY    32  25  74 NW22G32   30.43R THUNDER WCI  19  
COTTONWOOD PAS PTSUNNY   54  32  43 W16G35    30.32R                  
GUNNISON       CLOUDY    56  44  64 VRB3      30.26S                  
GRANBY         CLOUDY    52  46  80 W7        30.26S                  
KREMMLING      NOT AVBL                                               
LEADVILLE      CLOUDY    49  36  61 N13G22    30.32S                  
MONARCH PASS   CLOUDY    43  34  70 MISG      30.54R                  
SALIDA         CLOUDY    67  36  31 W18G26    30.26F                  
SUNLIGHT       RAIN      37  37 100 W8G18     30.42S VSB 1/2          
WILKERSON PASS FAIR      48  36  61 W5        30.42S                  
$$

COZ069>075-181800-
...SAN LUIS VALLEY/SANGRE DE CRISTO MOUNTAINS...
  
CITY           SKY/WX    TMP DP  RH WIND       PRES   REMARKS
ALAMOSA        FAIR      60  47  61 SE6       30.23F                  
DEL NORTE      FAIR      61  48  62 E9        30.25S                  
LA VETA PASS   NOT AVBL                                               
SAGUACHE       FAIR      63  43  48 CALM      30.23F                  
$$

COZ035-036-038>040-181800-
...NORTHERN COLORADO FRONT RANGE...
  
CITY           SKY/WX    TMP DP  RH WIND       PRES   REMARKS
DENVER INTL AP PTSUNNY   64  53  67 CALM      30.10F                  
AURORA         PTSUNNY   62  54  74 CALM      30.12F                  
FRONT RANGE AP CLOUDY    64  55  72 CALM      30.12S                  
ERIE MUNI ARPT CLOUDY    65  52  62 CALM      30.15S                  
BOULDER MUN AP CLOUDY    63  52  67 CALM      30.10S                  
CENTENNIAL     CLOUDY    63  53  70 N5        30.13S                  
BROOMFIELD     CLOUDY    63  52  67 CALM      30.13S                  
FORT COLLINS   NOT AVBL                                               
LONGMONT       CLOUDY    71  53  53 S3        30.11S                  
$$

COZ041-046-047-076>085-087-088-181800-
...PIKES PEAK/PALMER DIVIDE AND SOUTHERN FOOTHILLS...
  
CITY           SKY/WX    TMP DP  RH WIND       PRES   REMARKS
COLO. SPRINGS  PTSUNNY   63  51  65 SE5       30.15S                  
A. F. ACADEMY  PTSUNNY   62  50  65 S7        30.13F                  
SCHRIEVER AFB  NOT AVBL                                               
CHEYENNE MTN   NOT AVBL                                               
ELLICOTT         N/A    N/A N/A N/A VRB3      30.12F                  
FALCON         PTSUNNY   65  48  53 S7        30.18F                  
FORT CARSON    CLOUDY    63  53  67 E9        30.11S                  
LIMON          CLOUDY    65  53  65 N5        30.10F                  
MONUMENT HILL  CLOUDY    55  48  76 W3        30.20S                  
CANON CITY     FAIR      72  50  46 E6        30.09F                  
WALSENBURG     NOT AVBL                                               
TRINIDAD       FAIR      71  50  47 VRB5      30.11F                  
$$

COZ042>045-048>051-090-091-181800-
...NORTHEAST COLORADO...
  
CITY           SKY/WX    TMP DP  RH WIND       PRES   REMARKS
GREELEY ARPT   FAIR      66  56  70 VRB5      30.09S                  
AKRON          CLOUDY    60  57  89 NE5       30.09S                  
BURLINGTON     CLOUDY    64  58  80 CALM      30.06S                  
WRAY           CLOUDY    63  57  82 NE10      30.06S                  
YUMA           CLOUDY    55  46  71 NE6       30.07S HAZE             
STERLING       CLOUDY    63  55  77 NE3       30.06S                  
HOLYOKE        CLOUDY    63  61  94 NE3       30.06S                  
FORT MORGAN    CLOUDY    64  55  73 SE3       30.09F                  
$$

COZ086-089-092>099-181800-
...SOUTHEAST COLORADO...
  
CITY           SKY/WX    TMP DP  RH WIND       PRES   REMARKS
PUEBLO         FAIR      67  56  67 E5        30.07F                  
LA JUNTA       CLOUDY    68  56  65 NW6       30.06S                  
LAMAR          FAIR      67  58  72 NW6       30.02S                  
SPRINGFIELD      N/A     69  59  70 NW7       30.04S                  
$$